Zurück zum Katalog

SHIYAN 5

SY-5

AktivWissenschaftSSO
NORAD 39455·PAYLOAD·🇨🇳 China

Gestartet Nov 25, 2013 von Jiuquan Satellite Launch Center

Loading…

Nächste Überflüge (nächste 24 Stunden)

TLE

AktuellSource: Space-Track

Epoche: Sep 14, 2026, 14:51 UTC

1 39455U 13068A   26257.61922104  .00000200  00000-0  70665-4 0  9991
2 39455  98.0567 124.0988 0015081  35.4868 324.7324 14.43714119674539

Verfolge SHIYAN 5 in Echtzeit mit AllMySat

Download on the App Store